SCP
0 0 0 0 0 0 0 0 0 -0 -0 -0 -0 -0 -0 -0 -0 0 0 0 0 0 0 0 0 0 -0 0 0 0 0 0 0 0 0 0 0 0 0 0 0 0 0 0
0 0 0 0 0 0 0 0 0 0 -0 0 -0 -0 -0 -0 0 0 0 0 0 0 0 0 0 0 0 0 0 0 0 0 0 0 0 0 0 0 0 0 0 0 0 0
0 0 0 0 0 0 0 0 0 0 -0 -0 -0 -0 -0 -0 0 0 0 0 0 0 0 0 0 0 0 0 0 0 0 0 0 0 0 0 0 0 0 0 0 0 0 0
0 0 0 0 0 0 0 0 0 0 -0 0 0 0 0 0 0 0 0 0 0 0 0 0 0 0 0 0 0 0 0 0 0 0 0 0 0 0 0 0 0 0 0 0
0 0 0 0 0 0 0 0 0 0 0 0 0 0 -0 -0 0 0 0 0 0 0 0 0 0 0 0 0 0 0 0 0 0 0 0 0 0 0 0 0 0 0 0 0
0 0 0 0 0 0 0 -0 -0 0 0 0 0 -0 -0 0 -0 -0 0 0 0 0 0 0 0 0 0 0 0 0 0 0 0 0 0 0 0 0 0 0 0 0 0 0
0 0 0 0 0 0 0 0 0 0 0 -0 -0 0 0 -0 -0 -0 0 0 0 0 0 0 0 0 0 0 0 0 0 0 0 0 0 0 0 0 0 0 0 0 0 0
0 0 0 0 0 0 0 0 0 0 0 0 0 0 -0 -0 0 -0 -0 0 0 0 0 0 0 0 0 0 0 0 0 0 0 0 0 0 0 0 0 0 0 0 0 0
0 0 0 0 0 0 0 0 0 0 -0 -0 -0 -0 -0 -0 0 0 0 0 0 0 0 0 0 0 0 0 0 0 0 0 0 0 0 0 0 0 0 0 0 0 0 0
0 0 0 0 0 0 0 0 0 0 -0 -0 -0 -0 -0 -0 -0 -0 -0 0 0 0 0 0 0 0 0 0 0 0 0 0 0 0 0 0 0 0 0 0 0 0 0 0
0 0 0 0 0 0 0 0 0 0 -0 -0 -0 -0 -0 -0 -0 -0 0 0 0 0 0 0 0 0 0 0 0 0 0 0 0 0 0 0 0 0 0 0 0 0 0 0
0 0 0 0 0 0 0 0 0 -0 -0 0 -0 -0 -0 -0 -0 0 0 0 0 0 0 0 0 0 0 0 0 0 0 0 0 0 0 0 0 0 0 0 0 0 0 0
0 0 0 0 0 0 0 0 0 0 0 -0 -0 -0 -0 -0 0 0 0 0 0 0 0 0 0 0 0 0 0 0 0 0 0 0 0 0 0 0 0 0 0 0 0 0
0 0 0 0 0 0 0 0 0 0 -0 -0 -0 0 0 0 0 0 0 0 0 0 0 0 0 0 0 0 0 0 0 0 0 0 0 0 0 0 0 0 0 0 0 0
0 0 -0 -0 0 0 0 0 0 0 -0 0 0 0 0 0 0 0 0 0 0 0 0 0 0 0 0 0 0 0 0 0 0 0 0 0 0 0 0 0 0 0 0 0
0 0 0 0 -0 0 0 0 -0 0 0 0 0 0 0 0 0 0 0 0 0 0 0 0 0 0 0 0 0 0 0 0 0 0 0 0 0 0 0 0 0 0 0 0
0 0 0 0 0 0 0 0 0 0 0 0 0 0 0 0 0 0 0 0 0 0 0 0 0 0 0 0 0 0 0 0 0 0 0 0 0 0 0 0 0 0 0 0
0 0 0 0 0 0 0 0 0 0 0 0 0 0 0 0 0 0 0 0 0 0 0 0 0 0 0 0 0 0 0 0 0 0 0 0 0 0 0 0 0 0 0 0
0 0 0 0 0 0 0 0 0 0 0 0 0 0 0 0 0 0 0 0 0 0 0 0 0 0 0 0 0 0 0 0 0 0 0 0 0 0 0 0 0 0 0 0
0 0 0 0 0 0 0 0 0 0 0 0 0 0 0 0 0 0 0 0 0 0 0 0 0 0 0 0 0 0 0 0 0 0 0 0 0 0 0 0 0 0 0 0
0 0 0 0 0 0 0 0 0 0 0 0 0 0 0 0 0 0 0 0 0 0 0 0 0 0 0 0 0 0 0 0 0 0 0 0 0 0 0 0 0 0 0 0
0 -0 -0 -0 -0 -0 -0 -0 -0 0 0 0 0 0 0 0 0 0 0 0 0 0 0 0 0 0 0 0 0 0 0 0 0 0 0 0 0 0 0 0 0 0 0 0
-0 -0 -0 -0 -0 -0 -0 -0 -0 -0 0 0 0 0 0 0 0 0 0 0 0 0 0 0 0 0 0 0 0 0 0 0 0 0 0 0 0 0 0 0 0 0 0 0
-0 -0 -0 -0 -0 -0 -0 0 -0 -0 -0 -0 -0 -0 -0 0 -0 -0 -0 -0 0 0 0 0 0 0 0 0 0 0 0 0 0 0 0 0 0 0 0 0 0 0 0 0
-0 -0 -0 -0 -0 -0 -0 -0 -0 -0 0 -0 -0 -0 -0 -0 -0 0 0 0 0 0 0 0 0 0 0 0 0 0 0 0 0 0 0 0 0 0 0 0 0 0 0 0
0 0 -0 -0 -0 0 0 0 0 0 0 0 0 0 0 0 0 0 0 0 0 0 0 0 0 0 0 0 0 0 0 0 0 0 0 0 0 0 0 0 0 0 0 0
0 0 0 0 0 0 0 0 0 0 0 0 0 0 0 0 0 0 0 0 0 0 0 0 0 0 0 0 0 0 0 0 0 0 0 0 0 0 0 0 0 0 0 0
Wind_Speed_500mb
3 10 7 8 11 24 33 39 17 48 35 5 10 14 25 53 72 85 88 82 81 68 51 33 22 15 11 6 4 4 6 10 13 18 24 30 35 39 42 44 46 49 50 52
3 4 8 12 16 18 23 21 32 31 61 13 18 31 43 57 71 72 85 84 81 74 66 52 39 33 27 19 17 19 20 22 26 28 29 29 30 32 36 42 49 52 52 49
5 3 5 15 31 24 17 23 31 35 71 31 17 36 57 70 71 69 78 93 98 83 73 65 53 45 38 32 31 31 31 32 35 36 35 35 35 34 33 34 35 37 39 43
5 4 7 12 1 17 31 28 35 48 49 43 47 75 100 67 79 90 90 105 105 94 80 71 69 61 52 44 39 38 37 37 37 35 35 35 34 33 32 32 30 29 27 25
10 8 13 18 11 14 17 30 35 38 33 41 61 70 70 67 80 83 91 97 105 104 100 84 74 67 59 54 49 45 38 38 34 30 30 28 29 28 26 25 23 21 21 22
6 10 15 10 11 41 10 37 17 22 27 36 37 23 19 57 74 84 78 70 81 91 94 81 74 69 66 63 54 46 39 34 30 27 27 24 23 24 23 22 22 22 22 22
5 6 19 13 24 20 12 16 29 33 30 36 14 34 75 94 103 97 87 75 76 76 71 72 67 71 71 63 52 42 36 31 27 25 22 20 19 20 19 19 17 14 12 12
6 4 22 7 5 13 12 13 24 38 48 59 60 79 85 88 91 92 84 70 70 62 52 57 60 63 62 56 48 41 36 29 28 27 26 25 24 23 22 21 19 16 14 12
19 16 9 14 17 10 18 24 26 37 51 60 80 87 90 98 97 89 73 61 52 46 43 49 52 55 52 47 41 39 35 34 32 31 31 29 27 26 24 23 20 18 16 13
4 5 8 15 15 10 34 41 47 48 61 69 79 83 91 97 91 85 65 52 42 40 43 44 43 43 43 40 38 37 38 38 36 32 30 30 28 26 23 21 20 17 16 15
11 3 20 25 17 38 56 48 55 66 64 65 71 82 76 82 76 73 63 46 38 38 39 38 37 37 36 35 36 38 37 34 32 29 27 26 26 23 18 17 15 14 14 14
6 12 13 26 34 70 56 60 66 76 85 64 55 72 71 67 64 57 50 41 32 33 33 31 31 33 36 38 38 33 31 31 30 28 27 25 24 26 25 19 19 17 15 14
15 41 59 72 56 28 55 67 70 67 63 64 63 61 58 56 53 43 35 31 30 29 28 27 29 31 35 39 37 33 30 30 28 26 25 24 20 16 16 20 19 16 14 12
22 32 17 16 35 63 55 62 61 58 49 49 52 49 45 39 32 26 23 23 25 27 27 27 26 27 29 29 28 28 33 32 27 24 21 20 18 17 16 15 14 14 12 10
18 36 37 43 46 49 51 54 53 49 46 44 39 35 25 16 13 10 12 16 23 26 26 24 22 24 27 29 28 26 30 34 30 25 21 18 16 15 14 14 14 14 14 12
41 37 30 40 42 45 47 45 45 44 41 39 34 24 13 4 2 7 12 13 20 27 28 25 24 27 27 28 27 24 26 31 29 25 22 19 17 14 13 13 12 10 9 6
37 44 49 46 46 47 44 40 37 38 35 28 22 17 8 7 12 16 20 20 26 31 34 33 33 31 31 29 28 27 27 29 27 25 22 19 16 12 10 8 4 0 3 4
23 25 28 32 39 41 37 33 31 28 26 22 13 9 11 15 22 27 25 28 31 35 38 40 37 32 31 32 30 29 26 25 23 19 17 12 8 7 7 8 10 12 14 16
18 21 23 24 26 28 29 28 26 24 21 19 13 15 20 23 24 23 24 25 32 36 40 36 35 31 30 31 28 25 23 21 19 18 16 15 15 16 18 18 18 20 21 23
16 17 19 20 22 25 26 25 21 19 19 18 19 22 24 26 27 27 25 28 33 34 29 26 23 20 18 15 13 10 8 6 7 11 15 18 20 23 25 26 28 30 32 33
17 18 20 21 23 25 26 23 21 23 22 19 19 22 23 27 29 27 26 30 31 28 26 24 22 20 17 16 16 16 16 17 19 20 21 24 27 32 35 37 38 40 42 43
15 16 18 19 19 18 18 19 19 21 24 23 24 22 21 26 29 27 34 33 31 29 27 27 27 28 28 27 26 27 28 29 30 31 32 34 36 39 41 42 43 45 47 48
11 13 15 15 15 17 18 19 22 24 26 28 29 30 31 30 31 30 32 34 35 35 35 34 33 32 31 31 31 31 31 33 34 36 39 41 44 47 50 53 54 55 56 57
11 12 12 13 14 13 13 20 24 26 28 26 27 27 27 27 27 30 30 32 33 33 34 34 34 35 36 37 38 40 41 43 44 46 48 50 52 54 56 60 62 63 65 65
7 8 9 10 11 15 18 20 22 22 23 25 27 28 31 34 35 35 35 35 36 36 36 37 39 40 41 42 44 46 47 49 51 53 54 57 58 60 62 65 67 69 70 71
7 7 8 10 14 16 19 21 23 25 25 22 24 27 29 32 33 34 35 37 38 39 41 42 43 44 46 47 49 50 52 53 55 58 61 63 65 66 68 69 71 72 73 74
8 9 11 15 16 17 19 20 23 26 29 31 31 33 35 36 37 38 39 40 41 43 44 46 48 49 51 52 54 55 57 58 60 63 65 67 68 69 71 73 74 75 75 76
Wind_Direction_500mb
218 112 98 191 191 195 206 223 205 256 284 235 262 270 290 301 297 297 301 302 307 298 291 271 269 266 262 261 277 285 282 277 271 264 259 255 252 252 253 254 254 255 254 254
210 196 244 251 226 230 231 241 255 274 273 70 309 301 293 283 283 285 289 292 296 292 288 265 256 251 249 251 262 269 272 273 271 267 264 262 261 259 258 256 253 251 250 247
207 233 180 280 232 221 220 223 235 242 255 284 270 277 274 276 283 285 286 285 283 277 279 278 256 252 247 250 259 266 271 273 271 267 264 260 257 256 254 252 252 251 251 249
150 70 232 247 253 211 210 233 232 246 260 266 274 273 277 286 284 279 276 277 278 277 270 275 254 246 243 247 257 265 269 274 270 263 259 258 255 250 247 246 242 240 238 237
150 198 303 286 217 195 183 248 229 247 258 256 263 277 282 294 295 292 292 288 282 279 277 270 257 245 243 246 252 258 262 266 261 259 254 252 249 248 243 236 228 224 222 225
102 149 230 246 228 206 78 268 230 279 333 350 328 282 307 307 313 309 304 302 298 289 274 267 255 243 240 242 245 249 253 255 249 246 242 240 233 229 223 210 207 203 204 209
171 222 280 240 253 154 156 277 356 349 344 345 320 290 308 305 305 306 311 306 288 290 274 262 246 240 234 235 239 240 247 243 233 225 221 217 217 206 195 188 190 193 196 189
96 107 276 354 253 212 325 345 359 336 330 322 310 308 314 315 319 314 311 305 289 284 262 241 228 225 228 231 234 238 237 221 211 199 194 189 187 187 179 177 183 192 194 196
183 210 90 51 107 101 353 332 340 329 321 320 315 316 315 313 319 318 309 292 278 265 243 225 219 219 222 226 227 226 213 202 191 183 178 175 176 185 180 179 187 191 189 192
68 281 100 101 111 22 342 330 322 322 319 317 314 316 312 310 312 314 306 282 262 246 232 225 222 220 220 219 216 207 197 187 179 178 180 179 180 180 182 179 181 179 180 180
272 306 359 134 44 350 333 323 319 315 318 315 311 309 311 308 305 304 298 275 257 243 228 218 214 211 209 203 197 190 186 182 178 177 180 182 176 167 164 160 154 154 156 157
247 26 308 286 314 327 323 325 323 320 317 317 311 309 308 303 296 290 282 258 241 231 220 211 203 198 191 182 179 182 182 178 174 173 171 170 169 158 150 148 139 137 138 134
289 298 295 295 310 305 316 320 319 316 315 312 312 310 306 296 285 275 250 227 208 213 205 197 189 186 182 176 171 172 174 171 164 164 167 166 156 147 157 144 139 135 130 128
302 318 315 303 304 313 318 317 315 315 312 313 312 310 302 291 278 242 219 205 190 186 180 175 171 172 165 171 162 169 168 161 155 158 163 160 156 154 147 137 129 131 126 117
316 324 310 311 312 311 314 320 320 323 326 327 329 318 305 279 256 224 186 167 164 163 159 154 157 152 149 154 155 156 155 146 146 149 147 145 144 149 146 141 134 127 123 124
326 334 332 328 327 327 327 328 326 333 340 342 338 327 322 306 166 129 128 136 151 134 125 128 129 124 127 130 135 140 137 132 133 136 134 130 129 128 124 113 111 121 122 117
339 345 341 339 340 338 339 333 333 337 339 340 346 353 11 74 97 98 94 98 104 108 107 106 103 106 110 114 122 120 116 117 117 119 119 119 120 123 116 108 107 23 299 299
338 334 329 330 332 335 341 350 353 349 348 352 9 50 81 88 83 80 81 79 84 90 93 94 92 93 100 101 101 99 100 100 100 99 95 87 73 48 23 356 333 318 310 308
352 347 349 347 340 351 356 4 10 10 13 22 29 60 71 77 80 88 91 94 90 88 80 81 84 84 83 83 81 80 77 73 67 56 42 23 7 351 335 322 312 307 307 308
11 5 6 4 7 12 21 24 24 31 44 54 67 75 72 69 67 67 67 71 68 64 63 64 66 70 70 65 57 50 41 21 3 350 342 333 323 315 311 307 306 304 303 302
20 20 22 21 22 25 29 27 34 45 48 54 61 66 65 65 60 52 53 54 53 49 46 42 39 33 30 21 11 1 350 340 331 321 311 303 300 301 301 301 301 300 300 300
25 29 31 30 29 30 37 38 42 49 52 54 57 60 60 54 44 38 36 35 32 29 27 21 15 11 8 2 354 349 343 336 329 324 318 311 305 302 302 302 302 301 300 299
30 25 36 35 33 30 34 41 44 44 48 47 43 43 41 37 32 30 26 20 18 12 9 3 358 354 348 342 338 333 327 323 320 317 314 311 310 308 307 306 305 303 302 301
25 17 19 23 24 25 38 43 41 38 36 34 32 30 26 28 21 15 8 1 358 355 350 346 342 338 335 331 327 325 323 320 318 315 313 310 309 307 306 304 303 302 301 300
30 26 20 17 18 24 29 30 28 26 23 18 15 10 4 0 359 356 352 348 344 340 337 333 332 329 326 324 323 321 319 317 315 313 311 309 307 306 304 303 301 301 300 299
10 14 17 15 14 13 14 13 9 5 4 6 360 353 351 348 346 344 342 339 338 335 333 331 328 326 326 326 324 323 321 319 317 315 313 312 311 310 308 307 306 305 304 303
359 353 351 353 352 353 354 352 351 350 349 349 352 348 345 344 343 340 338 337 335 335 334 332 329 328 327 326 324 322 320 319 317 315 314 312 311 309 308 307 307 306 305 304
Wind_Speed_850mb
3 10 7 8 11 24 33 39 17 48 35 5 10 14 25 53 72 85 88 82 81 68 51 33 22 15 11 6 4 4 6 10 13 18 24 30 35 39 42 44 46 49 50 52
3 4 8 12 16 18 23 21 32 31 61 13 18 31 43 57 71 72 85 84 81 74 66 52 39 33 27 19 17 19 20 22 26 28 29 29 30 32 36 42 49 52 52 49
5 3 5 15 31 24 17 23 31 35 71 31 17 36 57 70 71 69 78 93 98 83 73 65 53 45 38 32 31 31 31 32 35 36 35 35 35 34 33 34 35 37 39 43
5 4 7 12 1 17 31 28 35 48 49 43 47 75 100 67 79 90 90 105 105 94 80 71 69 61 52 44 39 38 37 37 37 35 35 35 34 33 32 32 30 29 27 25
10 8 13 18 11 14 17 30 35 38 33 41 61 70 70 67 80 83 91 97 105 104 100 84 74 67 59 54 49 45 38 38 34 30 30 28 29 28 26 25 23 21 21 22
6 10 15 10 11 41 10 37 17 22 27 36 37 23 19 57 74 84 78 70 81 91 94 81 74 69 66 63 54 46 39 34 30 27 27 24 23 24 23 22 22 22 22 22
5 6 19 13 24 20 12 16 29 33 30 36 14 34 75 94 103 97 87 75 76 76 71 72 67 71 71 63 52 42 36 31 27 25 22 20 19 20 19 19 17 14 12 12
6 4 22 7 5 13 12 13 24 38 48 59 60 79 85 88 91 92 84 70 70 62 52 57 60 63 62 56 48 41 36 29 28 27 26 25 24 23 22 21 19 16 14 12
19 16 9 14 17 10 18 24 26 37 51 60 80 87 90 98 97 89 73 61 52 46 43 49 52 55 52 47 41 39 35 34 32 31 31 29 27 26 24 23 20 18 16 13
4 5 8 15 15 10 34 41 47 48 61 69 79 83 91 97 91 85 65 52 42 40 43 44 43 43 43 40 38 37 38 38 36 32 30 30 28 26 23 21 20 17 16 15
11 3 20 25 17 38 56 48 55 66 64 65 71 82 76 82 76 73 63 46 38 38 39 38 37 37 36 35 36 38 37 34 32 29 27 26 26 23 18 17 15 14 14 14
6 12 13 26 34 70 56 60 66 76 85 64 55 72 71 67 64 57 50 41 32 33 33 31 31 33 36 38 38 33 31 31 30 28 27 25 24 26 25 19 19 17 15 14
15 41 59 72 56 28 55 67 70 67 63 64 63 61 58 56 53 43 35 31 30 29 28 27 29 31 35 39 37 33 30 30 28 26 25 24 20 16 16 20 19 16 14 12
22 32 17 16 35 63 55 62 61 58 49 49 52 49 45 39 32 26 23 23 25 27 27 27 26 27 29 29 28 28 33 32 27 24 21 20 18 17 16 15 14 14 12 10
18 36 37 43 46 49 51 54 53 49 46 44 39 35 25 16 13 10 12 16 23 26 26 24 22 24 27 29 28 26 30 34 30 25 21 18 16 15 14 14 14 14 14 12
41 37 30 40 42 45 47 45 45 44 41 39 34 24 13 4 2 7 12 13 20 27 28 25 24 27 27 28 27 24 26 31 29 25 22 19 17 14 13 13 12 10 9 6
37 44 49 46 46 47 44 40 37 38 35 28 22 17 8 7 12 16 20 20 26 31 34 33 33 31 31 29 28 27 27 29 27 25 22 19 16 12 10 8 4 0 3 4
23 25 28 32 39 41 37 33 31 28 26 22 13 9 11 15 22 27 25 28 31 35 38 40 37 32 31 32 30 29 26 25 23 19 17 12 8 7 7 8 10 12 14 16
18 21 23 24 26 28 29 28 26 24 21 19 13 15 20 23 24 23 24 25 32 36 40 36 35 31 30 31 28 25 23 21 19 18 16 15 15 16 18 18 18 20 21 23
16 17 19 20 22 25 26 25 21 19 19 18 19 22 24 26 27 27 25 28 33 34 29 26 23 20 18 15 13 10 8 6 7 11 15 18 20 23 25 26 28 30 32 33
17 18 20 21 23 25 26 23 21 23 22 19 19 22 23 27 29 27 26 30 31 28 26 24 22 20 17 16 16 16 16 17 19 20 21 24 27 32 35 37 38 40 42 43
15 16 18 19 19 18 18 19 19 21 24 23 24 22 21 26 29 27 34 33 31 29 27 27 27 28 28 27 26 27 28 29 30 31 32 34 36 39 41 42 43 45 47 48
11 13 15 15 15 17 18 19 22 24 26 28 29 30 31 30 31 30 32 34 35 35 35 34 33 32 31 31 31 31 31 33 34 36 39 41 44 47 50 53 54 55 56 57
11 12 12 13 14 13 13 20 24 26 28 26 27 27 27 27 27 30 30 32 33 33 34 34 34 35 36 37 38 40 41 43 44 46 48 50 52 54 56 60 62 63 65 65
7 8 9 10 11 15 18 20 22 22 23 25 27 28 31 34 35 35 35 35 36 36 36 37 39 40 41 42 44 46 47 49 51 53 54 57 58 60 62 65 67 69 70 71
7 7 8 10 14 16 19 21 23 25 25 22 24 27 29 32 33 34 35 37 38 39 41 42 43 44 46 47 49 50 52 53 55 58 61 63 65 66 68 69 71 72 73 74
8 9 11 15 16 17 19 20 23 26 29 31 31 33 35 36 37 38 39 40 41 43 44 46 48 49 51 52 54 55 57 58 60 63 65 67 68 69 71 73 74 75 75 76
Wind_Direction_850mb
218 112 98 191 191 195 206 223 205 256 284 235 262 270 290 301 297 297 301 302 307 298 291 271 269 266 262 261 277 285 282 277 271 264 259 255 252 252 253 254 254 255 254 254
210 196 244 251 226 230 231 241 255 274 273 70 309 301 293 283 283 285 289 292 296 292 288 265 256 251 249 251 262 269 272 273 271 267 264 262 261 259 258 256 253 251 250 247
207 233 180 280 232 221 220 223 235 242 255 284 270 277 274 276 283 285 286 285 283 277 279 278 256 252 247 250 259 266 271 273 271 267 264 260 257 256 254 252 252 251 251 249
150 70 232 247 253 211 210 233 232 246 260 266 274 273 277 286 284 279 276 277 278 277 270 275 254 246 243 247 257 265 269 274 270 263 259 258 255 250 247 246 242 240 238 237
150 198 303 286 217 195 183 248 229 247 258 256 263 277 282 294 295 292 292 288 282 279 277 270 257 245 243 246 252 258 262 266 261 259 254 252 249 248 243 236 228 224 222 225
102 149 230 246 228 206 78 268 230 279 333 350 328 282 307 307 313 309 304 302 298 289 274 267 255 243 240 242 245 249 253 255 249 246 242 240 233 229 223 210 207 203 204 209
171 222 280 240 253 154 156 277 356 349 344 345 320 290 308 305 305 306 311 306 288 290 274 262 246 240 234 235 239 240 247 243 233 225 221 217 217 206 195 188 190 193 196 189
96 107 276 354 253 212 325 345 359 336 330 322 310 308 314 315 319 314 311 305 289 284 262 241 228 225 228 231 234 238 237 221 211 199 194 189 187 187 179 177 183 192 194 196
183 210 90 51 107 101 353 332 340 329 321 320 315 316 315 313 319 318 309 292 278 265 243 225 219 219 222 226 227 226 213 202 191 183 178 175 176 185 180 179 187 191 189 192
68 281 100 101 111 22 342 330 322 322 319 317 314 316 312 310 312 314 306 282 262 246 232 225 222 220 220 219 216 207 197 187 179 178 180 179 180 180 182 179 181 179 180 180
272 306 359 134 44 350 333 323 319 315 318 315 311 309 311 308 305 304 298 275 257 243 228 218 214 211 209 203 197 190 186 182 178 177 180 182 176 167 164 160 154 154 156 157
247 26 308 286 314 327 323 325 323 320 317 317 311 309 308 303 296 290 282 258 241 231 220 211 203 198 191 182 179 182 182 178 174 173 171 170 169 158 150 148 139 137 138 134
289 298 295 295 310 305 316 320 319 316 315 312 312 310 306 296 285 275 250 227 208 213 205 197 189 186 182 176 171 172 174 171 164 164 167 166 156 147 157 144 139 135 130 128
302 318 315 303 304 313 318 317 315 315 312 313 312 310 302 291 278 242 219 205 190 186 180 175 171 172 165 171 162 169 168 161 155 158 163 160 156 154 147 137 129 131 126 117
316 324 310 311 312 311 314 320 320 323 326 327 329 318 305 279 256 224 186 167 164 163 159 154 157 152 149 154 155 156 155 146 146 149 147 145 144 149 146 141 134 127 123 124
326 334 332 328 327 327 327 328 326 333 340 342 338 327 322 306 166 129 128 136 151 134 125 128 129 124 127 130 135 140 137 132 133 136 134 130 129 128 124 113 111 121 122 117
339 345 341 339 340 338 339 333 333 337 339 340 346 353 11 74 97 98 94 98 104 108 107 106 103 106 110 114 122 120 116 117 117 119 119 119 120 123 116 108 107 23 299 299
338 334 329 330 332 335 341 350 353 349 348 352 9 50 81 88 83 80 81 79 84 90 93 94 92 93 100 101 101 99 100 100 100 99 95 87 73 48 23 356 333 318 310 308
352 347 349 347 340 351 356 4 10 10 13 22 29 60 71 77 80 88 91 94 90 88 80 81 84 84 83 83 81 80 77 73 67 56 42 23 7 351 335 322 312 307 307 308
11 5 6 4 7 12 21 24 24 31 44 54 67 75 72 69 67 67 67 71 68 64 63 64 66 70 70 65 57 50 41 21 3 350 342 333 323 315 311 307 306 304 303 302
20 20 22 21 22 25 29 27 34 45 48 54 61 66 65 65 60 52 53 54 53 49 46 42 39 33 30 21 11 1 350 340 331 321 311 303 300 301 301 301 301 300 300 300
25 29 31 30 29 30 37 38 42 49 52 54 57 60 60 54 44 38 36 35 32 29 27 21 15 11 8 2 354 349 343 336 329 324 318 311 305 302 302 302 302 301 300 299
30 25 36 35 33 30 34 41 44 44 48 47 43 43 41 37 32 30 26 20 18 12 9 3 358 354 348 342 338 333 327 323 320 317 314 311 310 308 307 306 305 303 302 301
25 17 19 23 24 25 38 43 41 38 36 34 32 30 26 28 21 15 8 1 358 355 350 346 342 338 335 331 327 325 323 320 318 315 313 310 309 307 306 304 303 302 301 300
30 26 20 17 18 24 29 30 28 26 23 18 15 10 4 0 359 356 352 348 344 340 337 333 332 329 326 324 323 321 319 317 315 313 311 309 307 306 304 303 301 301 300 299
10 14 17 15 14 13 14 13 9 5 4 6 360 353 351 348 346 344 342 339 338 335 333 331 328 326 326 326 324 323 321 319 317 315 313 312 311 310 308 307 306 305 304 303
359 353 351 353 352 353 354 352 351 350 349 349 352 348 345 344 343 340 338 337 335 335 334 332 329 328 327 326 324 322 320 319 317 315 314 312 311 309 308 307 307 306 305 304